Temperature
8 8 8 8 8 8 8 8 8 8 8 8 8 9 9 9 9 9 9 9 9 9 9 10 10 10 10 10 10 11 11 11 11 11 11 12 12 12 12 12 12 12 12
8 8 8 8 8 8 8 8 8 8 8 8 8 8 8 8 8 8 8 8 9 9 9 9 9 9 9 10 10 10 10 10 11 10 10 10 11 11 12 12 12 12 12
7 7 7 7 7 7 7 7 7 7 7 7 7 7 7 7 8 8 8 8 8 8 8 8 8 9 9 9 9 9 9 10 10 10 10 10 10 10 10 11 11 11 11
7 7 7 7 7 7 6 6 6 6 6 6 7 7 7 7 7 7 7 7 7 7 7 8 8 8 8 8 9 9 9 9 9 9 9 9 9 9 9 10 10 10 10
7 6 6 6 6 6 6 6 6 6 6 6 6 6 6 6 6 6 6 7 7 7 7 7 7 7 8 8 8 8 8 8 8 8 9 9 9 9 8 8 9 9 9
6 6 6 6 6 6 5 5 5 6 6 6 6 5 6 6 6 6 6 6 6 6 7 7 7 7 7 7 7 7 8 8 8 8 8 8 8 8 8 8 8 8 9
6 6 6 5 5 5 5 5 5 5 5 5 5 5 5 5 5 5 5 5 6 6 6 6 6 6 6 7 7 7 7 7 7 7 7 7 7 7 7 7 7 7 8
6 6 5 5 5 5 5 4 4 5 5 5 5 5 5 5 5 5 5 5 5 5 5 6 6 6 6 6 6 6 6 6 6 6 6 6 6 6 6 6 6 6 6
6 5 5 5 5 4 4 4 4 4 4 5 5 5 4 4 4 5 5 4 5 5 5 5 5 5 5 5 5 5 6 6 6 6 6 6 6 6 6 6 6 5 5
6 6 5 5 5 4 4 4 4 4 4 4 4 4 4 4 4 4 4 4 4 4 4 5 5 5 5 5 5 5 5 5 5 5 5 5 5 5 5 5 5 5 5
6 6 5 5 4 4 4 4 4 4 4 4 4 4 4 4 4 4 4 4 4 4 4 4 4 5 5 5 5 5 5 5 5 5 4 4 4 4 4 4 4 4 4
6 5 5 5 5 4 4 4 4 4 4 3 3 4 4 4 4 4 4 4 4 4 4 4 4 4 4 4 4 4 4 4 4 4 4 4 3 3 4 4 4 4 4
5 5 5 5 4 4 4 4 3 3 3 3 3 3 3 3 3 3 3 3 3 3 3 3 3 3 3 3 3 3 3 3 3 3 3 3 3 3 3 3 3 3 3
5 5 5 5 4 4 4 4 3 3 3 3 3 3 3 3 3 3 3 3 3 3 3 3 3 3 3 3 3 3 3 3 3 3 3 3 3 3 3 3 2 2 2
5 5 5 5 4 4 4 4 3 3 3 3 3 3 3 3 3 3 3 3 3 3 3 3 3 2 2 2 2 2 2 2 2 2 2 2 2 2 2 2 2 2 2
5 5 5 5 4 4 4 4 3 3 3 3 2 2 2 2 2 2 2 2 2 2 2 2 2 2 2 2 2 1 2 2 2 2 2 2 2 1 1 1 1 1 1
5 5 5 5 4 4 4 3 3 3 3 2 2 2 2 2 2 2 2 2 2 2 2 2 2 2 2 1 1 1 1 1 1 1 1 1 1 1 1 1 1 1 1
5 5 5 5 4 4 4 3 3 3 2 2 2 2 1 1 1 1 1 1 1 1 1 1 1 1 1 1 1 1 0 0 0 0 0 1 1 1 1 1 1 1 1
5 5 5 4 4 4 3 3 3 3 2 2 2 1 1 1 1 1 1 1 1 1 1 1 1 0 0 0 0 -0 -0 -0 -0 -0 -0 -0 -0 0 0 0 0 0 0
5 5 5 4 4 4 3 3 3 3 2 2 2 1 1 1 1 1 0 0 0 0 0 0 -0 -0 -0 -0 -1 -1 -1 -1 -0 -0 -1 -1 -1 -1 -1 -1 -1 -1 -1
5 5 4 4 4 3 3 3 3 3 2 2 2 1 1 1 1 0 0 -0 -0 -0 -0 -0 -0 -0 -1 -1 -1 -1 -1 -1 -1 -1 -1 -1 -1 -1 -1 -1 -1 -1 -1
5 5 4 4 4 3 3 3 3 2 2 2 2 1 1 1 0 0 -0 -0 -1 -1 -1 -1 -1 -1 -1 -1 -1 -2 -2 -2 -2 -2 -2 -2 -2 -2 -2 -2 -2 -2 -2
5 4 4 4 3 3 3 3 2 2 2 2 1 1 1 1 0 -0 -0 -0 -1 -1 -1 -1 -1 -1 -1 -2 -2 -2 -2 -2 -2 -3 -3 -3 -3 -2 -2 -2 -2 -2 -2
4 4 4 3 3 3 2 2 2 2 1 1 1 1 1 0 0 -0 -1 -1 -1 -2 -2 -2 -2 -2 -2 -2 -2 -2 -2 -3 -3 -3 -3 -3 -3 -3 -3 -3 -2 -2 -3
4 4 3 3 3 3 2 2 2 1 1 1 1 1 0 -0 -0 -0 -1 -1 -1 -2 -2 -2 -2 -3 -2 -3 -3 -3 -3 -3 -3 -3 -3 -3 -3 -3 -3 -3 -3 -3 -3
4 3 3 3 3 2 2 2 1 1 1 1 0 0 -0 -1 -1 -1 -1 -1 -2 -2 -2 -2 -3 -3 -3 -3 -3 -3 -3 -4 -4 -4 -4 -4 -4 -4 -4 -4 -4 -4 -4
Wind_Speed
3 2 3 4 5 6 6 7 6 7 5 4 3 3 3 3 3 3 4 4 3 3 2 2 2 2 3 3 4 4 4 4 3 3 3 3 5 6 6 5 5 5 7
2 3 3 4 5 5 6 6 6 7 6 4 4 3 3 3 3 3 4 4 4 3 2 2 2 2 2 3 3 3 3 3 3 3 2 2 3 4 5 5 6 6 4
2 3 4 4 5 6 6 6 7 7 6 6 4 3 3 3 3 3 3 4 4 3 2 2 2 2 2 3 3 3 4 4 3 3 3 3 4 1 2 4 4 5 4
2 2 3 4 5 5 6 6 6 6 6 6 4 3 3 4 4 4 4 4 4 3 3 2 2 2 2 3 3 3 3 4 4 3 3 2 2 2 2 2 3 4 4
2 3 3 3 4 5 5 5 6 6 6 6 4 3 3 4 4 4 4 4 3 3 3 2 2 2 2 3 3 2 3 3 4 4 2 2 2 2 3 4 3 3 3
3 3 3 2 3 4 4 5 5 6 6 6 5 4 4 5 5 5 4 4 3 3 3 3 2 2 3 3 3 3 3 3 4 4 3 3 3 3 3 4 4 4 3
3 3 3 3 4 5 5 5 5 6 6 6 6 5 5 5 5 5 5 5 4 3 4 3 3 3 3 3 3 3 3 3 4 4 4 3 4 3 3 4 4 4 3
4 4 4 4 4 4 4 5 5 6 6 6 6 6 5 4 4 4 4 5 4 4 4 3 3 3 3 3 3 3 4 3 4 4 4 3 4 3 3 3 3 4 4
4 4 4 4 4 4 4 4 5 5 6 6 6 6 6 5 5 5 4 4 4 4 3 3 3 3 3 3 3 3 3 3 3 3 4 3 3 3 3 3 3 4 5
4 4 4 4 3 3 4 4 4 4 5 5 5 5 6 6 5 5 5 5 5 4 4 4 3 3 3 3 3 3 3 3 3 3 3 3 3 3 3 3 3 4 5
5 4 4 3 3 3 3 3 4 4 5 5 5 5 6 5 5 5 5 5 4 4 4 3 3 3 3 3 2 3 3 3 3 3 3 4 3 3 3 3 3 4 4
4 4 4 3 2 3 3 3 4 4 5 5 5 5 5 5 5 5 5 5 4 4 3 3 3 3 3 3 3 3 3 3 4 4 4 4 3 3 3 3 4 4 4
4 3 3 3 3 3 3 3 4 4 4 4 5 5 5 5 5 5 5 4 4 4 4 3 3 3 3 3 3 3 3 3 3 4 4 5 4 4 4 4 4 4 4
5 4 4 4 4 4 3 3 4 4 4 4 4 5 5 5 5 5 5 4 4 4 4 4 3 3 3 3 3 2 3 3 3 4 4 5 5 6 5 4 5 4 4
5 5 5 5 4 4 4 3 4 3 3 3 4 5 5 5 5 5 5 4 4 4 4 4 4 3 3 3 3 2 2 2 3 3 4 5 5 6 5 5 4 5 5
6 6 5 5 5 5 4 4 4 3 3 3 4 5 5 5 5 5 5 4 4 4 4 4 4 4 3 4 4 3 2 2 3 3 4 4 5 6 6 7 7 7 7
7 7 7 7 6 5 5 5 4 3 2 3 4 4 4 4 5 5 4 5 5 4 5 5 4 4 5 6 6 5 3 2 3 3 3 3 4 5 5 6 7 8 9
7 7 6 6 5 4 4 3 2 2 2 3 3 4 4 4 4 4 4 4 4 4 4 5 5 4 5 8 7 6 4 3 3 4 4 4 4 5 5 4 5 5 6
7 6 6 5 4 4 4 3 2 2 2 3 4 4 3 4 4 4 4 4 3 3 3 4 4 5 6 8 8 6 2 3 4 4 4 4 4 6 7 4 4 5 5
5 4 4 3 4 4 3 3 3 3 4 4 4 4 3 3 3 4 4 3 3 3 4 4 4 4 5 8 8 7 2 3 3 4 4 6 6 7 7 4 4 5 5
4 4 4 4 5 4 4 4 4 5 5 4 3 3 3 3 3 3 3 3 3 3 3 4 4 4 5 7 9 7 3 3 3 3 4 4 7 8 7 6 4 5 5
4 3 4 5 4 3 4 5 6 5 3 3 3 3 3 3 3 2 3 3 2 3 4 4 5 4 5 6 7 8 7 6 4 4 4 4 7 7 7 5 5 6 5
5 4 4 5 4 4 5 6 6 3 2 2 3 4 4 3 3 3 3 3 2 2 3 4 4 5 4 5 8 8 8 7 5 4 6 7 8 6 5 5 6 5 3
5 4 4 5 5 4 5 6 4 3 3 3 4 3 3 4 3 3 3 3 3 3 3 4 4 5 4 4 4 4 5 6 5 4 5 7 7 6 5 5 4 3 3
5 4 5 6 6 5 5 5 3 3 3 4 4 3 3 4 4 4 4 4 4 5 5 4 4 4 5 6 7 6 4 4 4 4 3 2 3 3 3 4 3 2 2
5 4 5 6 6 5 5 4 4 4 3 3 4 3 3 3 3 4 5 7 7 9 9 8 6 6 8 9 9 8 8 7 7 4 3 3 3 3 3 4 4 3 3
Wind_Direction
293 341 357 357 354 352 353 346 342 339 342 336 329 322 319 321 325 329 336 333 328 323 314 278 276 270 250 245 240 241 245 241 235 237 244 247 234 224 220 219 216 214 214
325 339 350 358 353 344 344 344 343 338 337 327 312 292 289 296 303 317 335 339 337 335 305 266 253 257 253 252 246 241 245 243 218 212 207 235 256 236 224 217 213 213 208
265 311 333 339 341 341 339 339 336 335 335 329 321 318 321 317 319 326 325 335 338 330 315 286 263 257 242 248 246 235 233 242 233 216 207 202 225 250 239 225 219 215 211
255 293 316 329 327 324 330 334 334 336 334 334 330 321 315 302 301 308 307 317 327 321 309 295 277 263 256 256 251 242 236 236 239 234 227 230 198 211 248 244 232 227 219
245 266 282 297 313 323 330 333 336 337 337 337 332 321 309 298 300 310 315 318 317 316 313 300 276 260 257 256 253 250 240 237 237 235 227 231 261 235 228 246 238 242 228
251 265 286 309 321 327 330 334 341 337 337 341 338 324 307 304 308 312 314 313 310 308 318 305 289 271 262 257 252 242 240 242 239 237 232 216 212 219 232 240 239 249 245
239 266 289 304 309 315 324 330 336 332 335 340 338 329 317 306 298 295 297 298 299 301 303 297 287 276 270 268 257 240 240 240 239 237 243 235 230 228 245 241 251 262 268
245 254 263 271 284 297 312 323 327 326 331 334 331 328 322 314 310 303 294 293 288 287 290 289 289 285 280 276 264 247 243 241 240 242 240 243 239 229 236 232 241 266 273
246 254 264 269 278 290 300 309 316 319 325 326 325 325 324 320 315 313 308 299 292 290 297 292 287 285 275 267 258 249 243 236 236 239 239 241 249 235 233 230 221 227 251
251 258 265 266 273 281 295 305 305 310 316 322 321 323 320 317 314 312 311 308 304 299 298 299 289 282 278 270 258 262 250 233 237 233 233 245 251 248 233 230 244 239 241
250 257 267 266 269 282 291 300 307 314 319 321 318 319 317 317 318 315 312 310 307 303 294 295 291 289 290 285 270 262 257 248 247 243 236 244 241 237 244 238 236 239 243
254 257 260 263 272 282 292 299 306 310 311 315 317 318 319 321 324 321 317 317 311 308 306 306 300 296 293 285 274 270 263 245 242 241 233 238 235 231 234 238 246 245 244
262 263 259 256 262 271 281 290 296 301 311 320 322 326 329 330 327 324 324 323 321 323 324 320 309 300 290 284 276 263 263 250 247 244 238 237 226 231 233 238 246 254 260
258 258 259 256 257 261 269 278 290 298 314 325 325 326 325 325 322 324 329 331 329 327 327 322 311 302 297 293 289 278 265 255 250 249 245 243 233 231 232 238 242 253 259
264 256 257 258 256 263 273 276 285 299 314 321 321 320 321 325 330 332 332 334 338 335 331 333 329 322 312 305 298 283 268 265 267 260 249 247 246 245 245 246 243 247 252
258 258 257 257 253 252 259 269 275 287 303 310 312 318 326 333 337 336 334 339 342 341 342 341 333 331 326 323 314 308 282 277 278 279 277 261 248 253 259 260 258 254 251
251 248 248 246 246 243 239 245 255 274 290 297 307 314 320 327 328 333 341 342 341 345 347 343 340 334 326 332 336 337 324 300 291 286 292 296 281 271 252 259 263 260 258
250 250 247 246 242 233 232 238 244 254 269 288 301 308 314 317 323 335 340 337 336 341 340 338 336 333 335 343 340 338 334 318 308 296 287 283 280 277 276 263 262 260 258
242 244 242 239 229 222 220 216 237 247 263 280 290 297 304 311 320 327 329 329 334 336 335 332 338 339 335 341 337 332 326 317 309 301 293 287 285 293 295 281 275 279 280
242 241 240 226 223 224 200 203 234 246 256 265 274 284 294 298 300 303 310 316 322 322 330 334 333 330 327 332 335 331 317 310 311 314 311 306 302 298 300 284 273 276 282
254 240 229 228 231 214 191 215 235 246 254 262 272 281 284 284 283 293 302 311 317 326 331 329 329 330 330 333 336 333 326 308 309 311 312 310 317 312 310 302 278 282 292
265 248 237 246 238 204 198 228 243 251 255 257 265 273 278 281 289 286 297 310 316 321 320 323 326 327 326 330 331 337 334 326 315 309 308 305 314 319 322 316 311 306 301
254 247 238 250 246 217 209 232 249 247 245 254 263 271 276 273 271 267 279 300 307 311 312 313 314 317 320 322 329 333 335 334 330 317 321 321 319 321 324 320 314 311 298
249 241 236 245 253 239 229 235 245 228 228 249 261 266 267 274 274 268 262 267 272 280 289 296 301 306 310 311 315 320 326 330 329 326 326 330 335 335 325 317 314 305 287
247 232 230 241 250 243 240 242 233 213 230 248 258 264 261 266 272 269 257 257 251 254 267 270 276 288 295 297 307 315 315 313 307 318 320 325 330 337 334 331 324 311 301
243 238 238 242 250 244 244 242 224 209 220 246 255 258 262 266 268 279 290 275 271 278 276 277 280 281 285 298 302 309 312 312 312 317 309 310 315 315 314 315 317 310 301
Height
1498 1498 1497 1496 1495 1493 1491 1490 1488 1486 1485 1483 1482 1480 1479 1479 1478 1478 1478 1478 1478 1478 1478 1479 1479 1480 1481 1482 1484 1485 1487 1488 1489 1490 1491 1492 1493 1494 1496 1498 1500 1501 1502
1495 1495 1495 1493 1492 1491 1489 1487 1485 1484 1482 1480 1478 1477 1476 1475 1474 1474 1473 1473 1473 1473 1474 1474 1474 1475 1476 1477 1478 1480 1481 1482 1484 1485 1485 1485 1487 1487 1489 1491 1493 1495 1496
1493 1493 1492 1491 1490 1488 1487 1485 1483 1481 1479 1477 1475 1474 1472 1471 1470 1469 1469 1468 1468 1468 1469 1469 1469 1470 1471 1471 1472 1474 1475 1476 1478 1480 1481 1481 1480 1481 1483 1485 1487 1488 1489
1491 1491 1490 1489 1488 1486 1484 1483 1481 1479 1477 1475 1472 1471 1469 1467 1466 1465 1464 1464 1464 1463 1463 1464 1464 1465 1465 1466 1467 1468 1470 1471 1472 1474 1475 1476 1476 1477 1477 1478 1480 1482 1482
1490 1489 1488 1487 1486 1484 1482 1480 1478 1476 1474 1472 1470 1468 1466 1464 1463 1462 1460 1459 1459 1459 1458 1459 1459 1459 1460 1461 1462 1463 1464 1466 1467 1468 1469 1470 1471 1471 1472 1472 1474 1476 1477
1488 1487 1486 1485 1484 1482 1480 1478 1476 1474 1472 1470 1468 1465 1463 1461 1460 1458 1457 1456 1454 1454 1454 1454 1454 1454 1455 1456 1456 1458 1459 1460 1462 1463 1464 1464 1465 1466 1467 1467 1468 1469 1470
1485 1485 1484 1483 1482 1480 1478 1476 1474 1472 1470 1468 1466 1463 1461 1459 1457 1455 1453 1452 1450 1449 1449 1449 1449 1450 1450 1451 1452 1453 1454 1455 1456 1457 1458 1459 1460 1461 1462 1463 1463 1463 1464
1483 1483 1482 1481 1480 1478 1476 1474 1472 1470 1468 1466 1463 1461 1459 1457 1454 1452 1450 1448 1447 1446 1445 1445 1445 1446 1446 1447 1447 1448 1449 1450 1451 1452 1453 1454 1455 1455 1456 1457 1458 1458 1458
1481 1481 1480 1479 1478 1476 1474 1472 1470 1468 1466 1464 1461 1459 1456 1454 1452 1449 1447 1445 1444 1443 1442 1442 1442 1442 1442 1443 1443 1443 1444 1445 1446 1447 1448 1449 1450 1450 1451 1452 1454 1455 1454
1479 1478 1478 1477 1476 1474 1472 1470 1468 1466 1464 1461 1459 1457 1454 1452 1449 1447 1445 1443 1441 1440 1439 1438 1438 1438 1438 1439 1439 1439 1440 1441 1441 1442 1442 1443 1445 1445 1446 1447 1448 1449 1450
1476 1476 1475 1475 1473 1472 1470 1468 1466 1464 1462 1459 1457 1454 1452 1450 1447 1445 1442 1440 1439 1438 1436 1436 1435 1435 1435 1435 1435 1435 1435 1436 1436 1437 1437 1438 1439 1440 1440 1441 1442 1443 1444
1474 1474 1473 1472 1471 1469 1468 1466 1464 1462 1460 1457 1454 1452 1450 1447 1445 1443 1441 1439 1437 1436 1434 1433 1433 1432 1432 1431 1431 1431 1431 1431 1431 1432 1432 1433 1434 1435 1436 1436 1437 1438 1438
1472 1471 1470 1469 1468 1467 1466 1464 1462 1460 1458 1455 1452 1450 1448 1445 1443 1441 1439 1437 1435 1434 1432 1431 1430 1429 1428 1428 1427 1427 1426 1426 1427 1427 1428 1428 1429 1429 1430 1431 1431 1432 1432
1469 1468 1468 1467 1466 1465 1464 1462 1460 1458 1456 1453 1451 1448 1446 1444 1442 1440 1437 1435 1433 1432 1430 1429 1427 1426 1426 1425 1424 1423 1422 1422 1422 1423 1423 1423 1423 1424 1425 1425 1426 1427 1427
1466 1466 1465 1464 1464 1463 1462 1460 1458 1456 1454 1452 1449 1447 1445 1443 1440 1438 1436 1434 1432 1430 1428 1427 1425 1424 1423 1422 1420 1420 1419 1418 1418 1418 1418 1418 1418 1419 1419 1420 1420 1421 1421
1463 1463 1462 1462 1461 1460 1459 1458 1456 1454 1452 1450 1448 1445 1443 1441 1439 1436 1434 1432 1430 1428 1426 1425 1423 1422 1420 1419 1418 1417 1415 1415 1414 1413 1413 1412 1413 1413 1414 1415 1416 1416 1416
1460 1459 1459 1459 1459 1458 1457 1455 1454 1452 1450 1448 1446 1444 1442 1439 1437 1435 1433 1431 1429 1427 1424 1423 1421 1419 1418 1417 1415 1414 1413 1411 1410 1409 1408 1407 1407 1408 1408 1409 1410 1410 1410
1456 1456 1456 1456 1456 1455 1454 1453 1452 1450 1448 1446 1444 1442 1440 1438 1436 1433 1431 1429 1427 1425 1423 1421 1419 1417 1416 1414 1412 1411 1409 1408 1407 1406 1404 1404 1403 1403 1403 1403 1403 1404 1404
1454 1454 1453 1453 1452 1452 1451 1450 1449 1447 1446 1444 1442 1440 1438 1436 1434 1432 1430 1428 1425 1423 1421 1419 1417 1415 1413 1411 1409 1408 1406 1404 1403 1402 1401 1400 1399 1399 1399 1399 1398 1397 1397
1451 1451 1450 1450 1449 1449 1448 1447 1446 1444 1443 1442 1440 1439 1437 1435 1433 1431 1428 1426 1424 1422 1420 1417 1416 1413 1411 1409 1407 1405 1403 1402 1400 1399 1398 1397 1396 1395 1395 1394 1393 1392 1391
1448 1448 1447 1446 1446 1445 1444 1444 1443 1441 1440 1439 1438 1436 1434 1433 1431 1429 1427 1425 1422 1420 1418 1416 1414 1412 1409 1407 1405 1403 1401 1400 1398 1396 1394 1393 1392 1391 1390 1390 1389 1387 1387
1445 1445 1444 1443 1443 1442 1441 1440 1439 1439 1438 1436 1435 1433 1432 1430 1429 1427 1425 1423 1420 1418 1416 1414 1412 1410 1408 1405 1403 1401 1400 1398 1396 1394 1392 1390 1389 1387 1386 1385 1384 1383 1383
1441 1441 1440 1439 1439 1438 1437 1436 1436 1435 1434 1433 1432 1430 1429 1428 1426 1424 1423 1421 1418 1416 1414 1412 1410 1407 1406 1403 1401 1399 1397 1395 1393 1391 1389 1387 1386 1384 1382 1381 1380 1379 1378
1437 1437 1436 1435 1435 1434 1434 1433 1433 1432 1431 1429 1428 1427 1426 1425 1423 1422 1420 1418 1416 1414 1412 1410 1408 1405 1403 1401 1399 1397 1395 1393 1390 1388 1386 1385 1383 1381 1379 1378 1376 1375 1374
1433 1433 1432 1431 1430 1430 1429 1429 1428 1428 1427 1426 1425 1424 1422 1421 1420 1418 1417 1415 1413 1412 1410 1408 1406 1403 1401 1399 1398 1395 1392 1390 1388 1386 1384 1382 1380 1378 1376 1374 1373 1372 1371
1429 1428 1428 1427 1426 1426 1425 1425 1424 1424 1423 1422 1421 1420 1418 1417 1416 1414 1413 1411 1410 1408 1407 1405 1403 1401 1399 1397 1395 1393 1390 1388 1386 1384 1381 1379 1377 1375 1373 1371 1370 1369 1368